Weather History for Thermal, CA

Change the Weather History Date:

Wednesday, April 24, 2013

  Actual Average Record
Temperature  
Mean Temperature 74 °F 72 °F  
Max Temperature 92 °F 89 °F 102 °F (1996)
Min Temperature 56 °F 56 °F 45 °F (1968)
Degree Days  
Heating Degree Days 0 0  
Month to date heating degree days 2 19  
Since 1 July heating degree days 1124 1176  
Cooling Degree Days 9 8  
Month to date cooling degree days 167 131  
Year to date cooling degree days 329 205  
Growing Degree Days 24 (Base 50)    
Moisture  
Dew Point 38 °F    
Average Humidity 33    
Maximum Humidity 62    
Minimum Humidity 4    
Precipitation  
Precipitation 0.00 in 0.00 in 0.07 in (2002)
Month to date precipitation 0.00 0.05  
Year to date precipitation 0.44 1.76  
Since 1 July precipitation 2.62 3.14  
Snow  
Snow 0.00 in - - ()
Month to date snowfall 0.0  
Year to date snowfall 0.0  
Since 1 July snowfall 0.0  
Snow Depth 0.00 in    
Sea Level Pressure  
Sea Level Pressure 29.77 in    
Wind  
Wind Speed 7 mph (ENE)    
Max Wind Speed 15 mph    
Max Gust Speed 22 mph    
Visibility 10 miles    
Events      
T = Trace of Precipitation, MM = Missing Value Source: NWS Daily Summary

Daily Weather History Graph

Daily Weather History Graph

Search for Another Location

Airport:

Trip Planner

Search our weather history database for the weather conditions in past years. The results will help you decide how hot, cold, wet, or windy it might be!

Date:

Astronomy

Apr. 24, 2013 Rise Set
Actual Time 6:03 AM PDT 7:22 PM PDT
Civil Twilight 5:37 AM PDT 7:48 PM PDT
Nautical Twilight 5:05 AM PDT 8:20 PM PDT
Astronomical Twilight 4:33 AM PDT 8:52 PM PDT
Moon 6:32 PM PDT (4/24) 5:06 AM PDT (4/24)
Length of Visible Light 14h 11m
Length of Day
13h 19m
Waxing Gibbous, 98% of the Moon is Illuminated
Apr 24
Waxing Gibbous
Apr 25
Full
May 2
Last Quarter
May 9
New
May 17
First Quarter

Hourly Weather History & Observations

Time (PDT) Temp. Dew Point Humidity Pressure Visibility Wind Dir Wind Speed Gust Speed Precip Events Conditions
12:52 AM 66.9 °F 34.0 °F 30% 29.80 in 10.0 mi North 6.9 mph - N/A   Clear
1:52 AM 57.9 °F 39.0 °F 49% 29.79 in 10.0 mi Calm Calm - N/A   Clear
2:52 AM 64.9 °F 45.0 °F 48% 29.78 in 10.0 mi NNE 8.1 mph - N/A   Clear
3:52 AM 66.0 °F 46.9 °F 50% 29.78 in 10.0 mi North 5.8 mph - N/A   Clear
4:52 AM 64.9 °F 48.0 °F 54% 29.78 in 10.0 mi NNE 6.9 mph - N/A   Clear
5:52 AM 57.9 °F 45.0 °F 62% 29.78 in 10.0 mi Calm Calm - N/A   Clear
6:52 AM 64.0 °F 48.0 °F 56% 29.80 in 10.0 mi North 3.5 mph - N/A   Clear
7:52 AM 66.9 °F 50.0 °F 54% 29.81 in 10.0 mi Calm Calm - N/A   Clear
8:52 AM 73.9 °F 45.0 °F 35% 29.84 in 10.0 mi NE 3.5 mph - N/A   Clear
9:52 AM 77.0 °F 43.0 °F 30% 29.85 in 10.0 mi SSE 8.1 mph - N/A   Clear
10:52 AM 80.1 °F 41.0 °F 25% 29.85 in 10.0 mi ESE 10.4 mph - N/A   Clear
11:52 AM 81.0 °F 35.1 °F 19% 29.83 in 10.0 mi SE 9.2 mph - N/A   Clear
12:52 PM 86.0 °F 33.1 °F 15% 29.81 in 10.0 mi SE 8.1 mph - N/A   Clear
1:52 PM 90.0 °F 19.0 °F 7% 29.77 in 10.0 mi SSE 13.8 mph 18.4 mph N/A   Clear
2:52 PM 91.0 °F 8.1 °F 4% 29.77 in 10.0 mi SSE 12.7 mph - N/A   Clear
3:52 PM 91.9 °F 16.0 °F 6% 29.71 in 10.0 mi SSE 11.5 mph 21.9 mph N/A   Clear
4:52 PM 91.0 °F 17.1 °F 7% 29.72 in 10.0 mi South 9.2 mph 18.4 mph N/A   Clear
5:52 PM 90.0 °F 26.1 °F 10% 29.68 in 10.0 mi SE 8.1 mph - N/A   Clear
6:52 PM 84.9 °F 34.0 °F 16% 29.68 in 10.0 mi East 4.6 mph - N/A   Clear
7:52 PM 77.0 °F 48.0 °F 36% 29.70 in 10.0 mi NW 13.8 mph 27.6 mph N/A   Clear
8:52 PM 73.0 °F 48.0 °F 41% 29.73 in 10.0 mi NW 15.0 mph 21.9 mph N/A   Clear
9:52 PM 70.0 °F 48.0 °F 46% 29.75 in 9.0 mi NW 20.7 mph 28.8 mph N/A   Clear
10:52 PM 69.1 °F 48.0 °F 47% 29.76 in 7.0 mi NNW 19.6 mph 26.5 mph N/A   Clear
11:52 PM 68.0 °F 48.0 °F 49% 29.77 in 10.0 mi NNW 16.1 mph 25.3 mph N/A   Clear